When you browse on this site, cookies collect data to enhance your experience and personalize the content and advertising you see.
Visit our Privacy Policy to learn more. By continuing to use the site, you agree to this use of cookies and data.
  • în România
  • Lista ţărilor
  • Pe 7 zile
  • Temperatura apei
  • Hartă satelitară
  • Meteo pe hartă
  • Widget-uri
  • user-avatar
    Intrare

    Meteo pe oră la Tafilah

    Astăzi, 19 Noiembrie, Luni

    Timp Temperatura Precipitaţii Vânt Presiune Umiditate
    00:00 +18°C° 0 mm 3 m/s 700 mmHg 42%
    01:00 +18°C° 0 mm 2 m/s 700 mmHg 43%
    02:00 +18°C° 0 mm 2 m/s 700 mmHg 44%
    03:00 +17°C° 0.1 mm 2 m/s 700 mmHg 47%
    04:00 +17°C° 0.1 mm 2 m/s 699 mmHg 49%
    05:00 +16°C° 0.1 mm 1 m/s 699 mmHg 51%
    06:00 +18°C° 0.2 mm 1 m/s 700 mmHg 50%
    07:00 +19°C° 0.2 mm 1 m/s 700 mmHg 48%
    08:00 +19°C° 0.2 mm 1 m/s 700 mmHg 47%
    09:00 +20°C° 0.1 mm 1 m/s 701 mmHg 44%
    10:00 +21°C° 0.1 mm 1 m/s 701 mmHg 41%
    11:00 +21°C° 0.1 mm 2 m/s 701 mmHg 38%
    12:00 +21°C° 0 mm 2 m/s 701 mmHg 36%
    13:00 +23°C° 0 mm 2 m/s 701 mmHg 35%
    14:00 +23°C° 0 mm 2 m/s 701 mmHg 33%
    15:00 +21°C° 0 mm 2 m/s 701 mmHg 35%
    16:00 +20°C° 0 mm 2 m/s 701 mmHg 37%
    17:00 +21°C° 0 mm 1 m/s 701 mmHg 38%
    18:00 +20°C° 0 mm 1 m/s 701 mmHg 40%
    19:00 +19°C° 0 mm 1 m/s 701 mmHg 42%
    20:00 +19°C° 0 mm 1 m/s 702 mmHg 44%
    21:00 +18°C° 0 mm 1 m/s 702 mmHg 46%
    22:00 +18°C° 0 mm 1 m/s 702 mmHg 48%
    23:00 +15°C° 0 mm 0 m/s 702 mmHg 50%

    Mâine, 20 Noiembrie, Marţi

    Timp Temperatura Precipitaţii Vânt Presiune Umiditate
    00:00 +16°C° 0 mm 1 m/s 702 mmHg 52%
    01:00 +16°C° 0 mm 1 m/s 702 mmHg 54%
    02:00 +15°C° 0 mm 1 m/s 702 mmHg 57%
    03:00 +15°C° 0 mm 1 m/s 702 mmHg 58%
    04:00 +15°C° 0 mm 1 m/s 702 mmHg 60%
    05:00 +14°C° 0 mm 1 m/s 702 mmHg 62%
    06:00 +15°C° 0 mm 1 m/s 703 mmHg 59%
    07:00 +18°C° 0 mm 1 m/s 703 mmHg 56%
    08:00 +19°C° 0 mm 1 m/s 704 mmHg 52%
    09:00 +20°C° 0 mm 1 m/s 704 mmHg 48%
    10:00 +21°C° 0 mm 1 m/s 704 mmHg 44%
    11:00 +21°C° 0 mm 2 m/s 704 mmHg 40%
    12:00 +21°C° 0 mm 2 m/s 704 mmHg 38%
    13:00 +23°C° 0 mm 2 m/s 703 mmHg 36%
    14:00 +23°C° 0 mm 2 m/s 703 mmHg 34%
    15:00 +23°C° 0 mm 1 m/s 703 mmHg 37%
    16:00 +22°C° 0 mm 1 m/s 703 mmHg 39%
    17:00 +21°C° 0 mm 1 m/s 702 mmHg 41%
    18:00 +21°C° 0 mm 1 m/s 703 mmHg 43%
    19:00 +20°C° 0 mm 1 m/s 703 mmHg 45%
    20:00 +20°C° 0 mm 1 m/s 703 mmHg 47%
    21:00 +19°C° 0 mm 1 m/s 703 mmHg 48%
    22:00 +18°C° 0 mm 2 m/s 703 mmHg 50%
    23:00 +17°C° 0 mm 2 m/s 703 mmHg 52%

    Poimâine, 21 Noiembrie, Miercuri

    Timp Temperatura Precipitaţii Vânt Presiune Umiditate
    00:00 +17°C° 0 mm 2 m/s 702 mmHg 53%
    01:00 +17°C° 0 mm 2 m/s 702 mmHg 54%
    02:00 +16°C° 0 mm 2 m/s 701 mmHg 56%
    03:00 +16°C° 0 mm 2 m/s 701 mmHg 56%
    04:00 +16°C° 0 mm 2 m/s 701 mmHg 57%
    05:00 +15°C° 0 mm 1 m/s 701 mmHg 58%
    06:00 +16°C° 0 mm 1 m/s 701 mmHg 54%
    07:00 +17°C° 0 mm 2 m/s 702 mmHg 51%
    08:00 +18°C° 0 mm 2 m/s 702 mmHg 47%
    09:00 +20°C° 0 mm 2 m/s 702 mmHg 42%
    10:00 +21°C° 0 mm 2 m/s 702 mmHg 37%
    11:00 +23°C° 0 mm 2 m/s 702 mmHg 32%
    12:00 +23°C° 0 mm 2 m/s 701 mmHg 30%
    13:00 +24°C° 0 mm 2 m/s 701 mmHg 28%
    14:00 +24°C° 0 mm 2 m/s 700 mmHg 26%
    15:00 +23°C° 0 mm 2 m/s 700 mmHg 28%
    16:00 +21°C° 0 mm 2 m/s 700 mmHg 30%
    17:00 +20°C° 0 mm 2 m/s 700 mmHg 32%
    18:00 +19°C° 0 mm 2 m/s 700 mmHg 34%
    19:00 +20°C° 0 mm 1 m/s 700 mmHg 37%
    20:00 +19°C° 0 mm 1 m/s 700 mmHg 39%
    21:00 +19°C° 0 mm 1 m/s 700 mmHg 41%
    22:00 +18°C° 0 mm 1 m/s 700 mmHg 43%
    23:00 +18°C° 0 mm 1 m/s 699 mmHg 45%

    22 Noiembrie, Joi

    Timp Temperatura Precipitaţii Vânt Presiune Umiditate
    00:00 +18°C° 0 mm 1 m/s 699 mmHg 46%
    01:00 +18°C° 0 mm 1 m/s 699 mmHg 47%
    02:00 +18°C° 0 mm 1 m/s 699 mmHg 48%
    03:00 +18°C° 0 mm 1 m/s 699 mmHg 48%
    04:00 +16°C° 0 mm 1 m/s 699 mmHg 48%
    05:00 +16°C° 0 mm 1 m/s 699 mmHg 48%
    06:00 +18°C° 0 mm 1 m/s 699 mmHg 46%
    07:00 +18°C° 0 mm 1 m/s 699 mmHg 44%
    08:00 +19°C° 0 mm 1 m/s 700 mmHg 42%
    09:00 +20°C° 0 mm 1 m/s 700 mmHg 38%
    10:00 +19°C° 0 mm 2 m/s 700 mmHg 34%
    11:00 +20°C° 0 mm 2 m/s 700 mmHg 31%
    12:00 +21°C° 0 mm 2 m/s 699 mmHg 29%
    13:00 +21°C° 0 mm 2 m/s 699 mmHg 27%
    14:00 +23°C° 0 mm 2 m/s 698 mmHg 25%
    15:00 +21°C° 0 mm 2 m/s 698 mmHg 27%
    16:00 +20°C° 0 mm 2 m/s 698 mmHg 29%
    17:00 +19°C° 0 mm 2 m/s 698 mmHg 31%
    18:00 +18°C° 0 mm 2 m/s 698 mmHg 32%
    19:00 +18°C° 0 mm 2 m/s 698 mmHg 34%
    20:00 +17°C° 0 mm 2 m/s 699 mmHg 35%
    21:00 +17°C° 0 mm 2 m/s 699 mmHg 37%
    22:00 +16°C° 0 mm 2 m/s 698 mmHg 38%
    23:00 +15°C° 0 mm 2 m/s 698 mmHg 40%

    23 Noiembrie, Vineri

    Timp Temperatura Precipitaţii Vânt Presiune Umiditate
    00:00 +15°C° 0 mm 2 m/s 698 mmHg 42%
    01:00 +15°C° 0 mm 2 m/s 698 mmHg 44%
    02:00 +14°C° 0 mm 2 m/s 697 mmHg 46%
    03:00 +14°C° 0 mm 2 m/s 697 mmHg 48%
    04:00 +14°C° 0 mm 2 m/s 697 mmHg 50%
    05:00 +13°C° 0 mm 2 m/s 697 mmHg 51%
    06:00 +14°C° 0 mm 2 m/s 698 mmHg 52%
    07:00 +14°C° 0 mm 3 m/s 698 mmHg 53%
    08:00 +14°C° 0 mm 3 m/s 698 mmHg 54%
    09:00 +15°C° 0.1 mm 4 m/s 698 mmHg 53%
    10:00 +15°C° 0.1 mm 4 m/s 698 mmHg 53%
    11:00 +17°C° 0.1 mm 4 m/s 698 mmHg 53%
    12:00 +17°C° 0.4 mm 4 m/s 698 mmHg 53%
    13:00 +17°C° 0.4 mm 4 m/s 697 mmHg 53%
    14:00 +17°C° 0.4 mm 4 m/s 697 mmHg 53%
    15:00 +17°C° 0.3 mm 4 m/s 697 mmHg 55%
    16:00 +16°C° 0.3 mm 3 m/s 697 mmHg 57%
    17:00 +16°C° 0.3 mm 3 m/s 697 mmHg 59%
    18:00 +14°C° 0.2 mm 3 m/s 697 mmHg 59%
    19:00 +14°C° 0.2 mm 3 m/s 697 mmHg 60%
    20:00 +14°C° 0.2 mm 3 m/s 698 mmHg 61%
    21:00 +13°C° 0.2 mm 3 m/s 697 mmHg 63%
    22:00 +13°C° 0.2 mm 3 m/s 697 mmHg 65%
    23:00 +13°C° 0.2 mm 3 m/s 697 mmHg 67%

    24 Noiembrie, Sâmbătă

    Timp Temperatura Precipitaţii Vânt Presiune Umiditate
    00:00 +13°C° 0.2 mm 3 m/s 697 mmHg 69%
    01:00 +12°C° 0.2 mm 3 m/s 697 mmHg 71%
    02:00 +12°C° 0.2 mm 4 m/s 697 mmHg 74%
    03:00 +12°C° 0.4 mm 4 m/s 697 mmHg 75%
    04:00 +12°C° 0.4 mm 4 m/s 697 mmHg 76%
    05:00 +12°C° 0.4 mm 4 m/s 697 mmHg 78%
    06:00 +12°C° 0.2 mm 4 m/s 697 mmHg 77%
    07:00 +12°C° 0.2 mm 5 m/s 698 mmHg 76%
    08:00 +12°C° 0.2 mm 5 m/s 698 mmHg 75%
    09:00 +13°C° 0.1 mm 5 m/s 698 mmHg 71%
    10:00 +14°C° 0.1 mm 5 m/s 698 mmHg 67%
    11:00 +15°C° 0.1 mm 5 m/s 698 mmHg 63%
    12:00 +15°C° 0.2 mm 5 m/s 698 mmHg 60%
    13:00 +15°C° 0.2 mm 5 m/s 698 mmHg 58%
    14:00 +16°C° 0.2 mm 5 m/s 698 mmHg 56%
    15:00 +15°C° 0.3 mm 4 m/s 698 mmHg 58%
    16:00 +14°C° 0.3 mm 4 m/s 698 mmHg 61%
    17:00 +14°C° 0.3 mm 3 m/s 698 mmHg 64%
    18:00 +13°C° 0.2 mm 3 m/s 698 mmHg 65%
    19:00 +13°C° 0.2 mm 3 m/s 698 mmHg 67%
    20:00 +13°C° 0.2 mm 3 m/s 698 mmHg 69%
    21:00 +12°C° 0 mm 3 m/s 698 mmHg 70%
    22:00 +12°C° 0 mm 3 m/s 698 mmHg 71%
    23:00 +12°C° 0 mm 3 m/s 698 mmHg 72%
    Arată mai mult